Dauntless Aviation
Airports Europe Croatia
LDDU
DBV

Dubrovnik

Dubrovnik, CROATIA

Airport Info
Suggest Updated Information for this Airport

Location

Latitude / Longitude: 42°33'41"N / 18°16'5"E
  42°33.684'N / 18°16.092'E
  42.5614 / 18.2682

Nearby radio navigation aids

CV DUBROVNIK NDB. 117.6° 2.8nm from CV to field.
DBK DUBROVNIK VOR/DME on field.
GR DUBROVNIK NDB. 294.2° 2.9nm from GR to field.
KLP KOLOCEP NDB. 118.0° 12.7nm from KLP to field.

Runway Information

Runway 12 /30

Dimensions: 10827 x 148 ft.
Surface: ASP
 
Runway 12
Runway 30
Latitude: 42.569225 42.555819
Longitude: 18.2484 18.282192
Elevation: 519 ft. 519 ft.
Runway true heading: 117.6 297.6
 

Instrument Procedures

  Aerodrome Chart
  Aircraft Parking/Docking Chart

STARs (Standard Terminal Arrivals)

  STAR - Instrument (STAR) - Rwy 12/30

IAPs (Instrument Approach Procedures)

  Visual Manoeuvering - Circling Chart (IFR) - Circling Rwy 30
  Aerodrome Obstacle Chart - Type A - Rwy 30
  Aerodrome Obstacle Chart - Type A - Rwy 12
  VOR Rwy 12
  Bird Concentrations
  Visual Operation Chart
  VOR-A Rwy 30
  L Rwy 12
  ILS or LOC Rwy 12
  ATC Surveillance Minimum Altitude Chart

Departure Procedures

  SID - Instrument (SID) - Rwy 30
  SID - Instrument (SID) - Rwy 12
Satellite photo at:
Airport distance calculator
From:
Weather Reports

METAR

LDDU

LDDU 030300Z 10005KT 9999 -RA SCT055 11/11 Q1005 NOSIG
LYTV
22.6nm E
LYTV 030300Z VRB01KT 9999 RA FEW027 SCT033 OVC080 12/11 Q1005

TAF

LDDU
TAF LDDU 022325Z 0300/0324 09008KT 9999 BKN050 TX17/0312Z TN10/0304Z PROB30 TEMPO 0302/0310 4000 SHRA SCT020TCU BKN030 BECMG 0309/0311 33012KT BECMG 0318/0320 02018KT
LYTV
22.6nm E
TAF LYTV 022300Z 0300/0324 14005KT 9999 -RA FEW020 SCT033 OVC080 TX18/0313Z TN11/0303Z TEMPO 0300/0306 5000 RA BECMG 0302/0304 02012G22KT BECMG 0308/0310 24008KT
Safelog

 

Dauntless Aviation

© 2007-2016 Dauntless Aviation, all rights reserved
Information provided via PilotNav comes from a variety of official and unofficial data sources. As errors are possible, do not use PilotNav for primary flight planning purposes. Verify any information that you receive via PilotNav with current and canonical charts and other official documents. The material in this database is subject to database copyrights held by Dauntless Aviation and may not be copied without the express permission of Dauntless Aviation - licenses for use of part of all of this data are available for purchase; enquire via the Dauntless Aviation helpdesk. A number of mechanisms and markers exist in the database to protect against and identify infringement / copyright. Automated queries against this website are stictly prohibited, and all activity is logged and analyzed.